This is the latest recevied weather packets stored in our database for station/object SALIDA. If no packets are shown the sender has not sent any weather packets the latest 10 day(s).
| Time | Temp. | Humidity | Pressure | Rain* | Wind** | Luminosity | Snow |
|---|---|---|---|---|---|---|---|
| 1777846589 | 18.89° C | 20% | 1004.7 hPa | 0 mm | - | - | - |
| 1777845689 | 19.44° C | 19% | 1005 hPa | 0 mm | - | - | - |
| 1777844789 | 19.44° C | 20% | 1005.3 hPa | 0 mm | - | - | - |
| 1777843889 | 19.44° C | 21% | 1005.4 hPa | 0 mm | - | - | - |
| 1777843021 | 19.44° C | 22% | 1005.7 hPa | 0 mm | - | - | - |
| 1777842989 | 19.44° C | 22% | 1005.7 hPa | 0 mm | - | - | - |
| 1777842089 | 19.44° C | 21% | 1006.2 hPa | 0 mm | - | - | - |
| 1777841189 | 18.33° C | 24% | 1006.8 hPa | 0 mm | - | - | - |
| 1777840289 | 17.78° C | 23% | 1006.8 hPa | 0 mm | - | - | - |
| 1777839389 | 17.78° C | 23% | 1006.8 hPa | 0 mm | - | - | - |
| 1777838489 | 18.33° C | 22% | 1007.1 hPa | 0 mm | - | - | - |
| 1777837589 | 19.44° C | 20% | 1007.1 hPa | 0 mm | - | - | - |
| 1777836689 | 19.44° C | 21% | 1007.5 hPa | 0 mm | - | - | - |
| 1777835789 | 18.89° C | 22% | 1007.7 hPa | 0 mm | - | - | - |
| 1777834889 | 18.89° C | 22% | 1008.2 hPa | 0 mm | - | - | - |
| 1777833990 | 17.78° C | 23% | 1008.5 hPa | 0 mm | - | - | - |
| 1777833090 | 17.22° C | 24% | 1009 hPa | 0 mm | - | - | - |
| 1777832189 | 17.22° C | 24% | 1009.2 hPa | 0 mm | - | - | - |
| 1777831289 | 17.22° C | 23% | 1009.5 hPa | 0 mm | - | - | - |
| 1777830390 | 17.22° C | 23% | 1009.7 hPa | 0 mm | - | - | - |
| 1777829490 | 17.22° C | 24% | 1010.1 hPa | 0 mm | - | - | - |
| 1777828590 | 16.67° C | 24% | 1010.1 hPa | 0 mm | - | - | - |
| 1777827691 | 16.67° C | 25% | 1010.6 hPa | 0 mm | - | - | - |
| 1777826790 | 16.67° C | 25% | 1010.8 hPa | 0 mm | - | - | - |
| 1777825890 | 16.11° C | 26% | 1011.2 hPa | 0 mm | - | - | - |
* Rain latest hour (hover to see other rain measurements)
** Current wind speed in m/s (hover to see current wind gust speed)